User: anonymous   Login
Location: Unspecified
(0.0000°N, 0.0000°E)
Time: 23:00:45
(UTC+01:00)
Language:

Cosmos 1092 Rocket - Orbit

View from above orbital plane
View from above orbital plane
View from above satellite
View from above satellite

Ground track
Ground track

The orbit data is extracted from the following two-line orbital elements,

1 11327U 79030B   14355.34855657  .00000120  00000-0  10604-3 0  9014
2 11327 082.9501 250.6671 0027300 201.2701 302.0934 13.76956593794064
Epoch (UTC): 21 December 2014 08:21:55
Eccentricity: 0.0027300
inclination: 82.9501°
perigee height: 954 km
apogee height: 995 km
right ascension of ascending node: 250.6671°
argument of perigee: 201.2701°
revolutions per day: 13.76956593
mean anomaly at epoch: 302.0934°
orbit number at epoch: 79406

The dashed part of the orbit path shows where the satellite is in the earth's shadow,  

DLR